Quick links : Home Page : Contact Us : Index : Site Map : Search Site : Ephemerides


(102758) 1999 VK130

Orbital Elements

The following orbital elements are taken from MPO124279
(102758) 1999 VK130
Epoch 2007 Oct. 27.0 TT = JDT 2454400.5                 MPC
M  40.65515              (2000.0)            P               Q
n   0.24289043     Peri.   36.50252     +0.82209768     +0.56474368
a   2.5440703      Node   288.95861     -0.53877490     +0.73064160
e   0.2850975      Incl.    4.38129     -0.18405709     +0.38370226
P   4.06           H   15.8           G   0.15           U   3
From 100 observations at 4 oppositions, 1999-2007, mean residual 0".56.
An explanation of the orbital elements is available.

These orbital elements are also available in forms suitable for loading into a number of popular planetarium-type software programs.


Ephemeris

The following ephemeris is at intervals of five days. A daily ephemeris covering the same time interval is also available.

Personalized ephemerides for this (and other) objects may be generated using the Minor Planet & Comet Ephemeris Service.

Date    TT    R. A. (2000) Decl.     Delta      r     Elong.  Phase     V
2008 07 13    06 47.57   +23 38.7    3.883    2.887    10.0     3.5    21.4
 
2008 12 20    09 14.90   +14 28.4    2.437    3.177   131.6    13.4    21.0
2008 12 25    09 12.66   +14 32.0    2.390    3.183   137.2    12.1    20.9
2008 12 30    09 09.86   +14 38.0    2.348    3.189   143.0    10.7    20.8
2009 01 04    09 06.53   +14 46.2    2.312    3.194   148.9     9.1    20.8
2009 01 09    09 02.72   +14 56.4    2.282    3.200   154.9     7.5    20.7
2009 01 14    08 58.51   +15 08.3    2.259    3.205   161.0     5.7    20.6
2009 01 19    08 53.97   +15 21.4    2.243    3.210   167.1     3.9    20.4
2009 01 24    08 49.22   +15 35.3    2.235    3.214   173.2     2.1    20.3
2009 01 29    08 44.36   +15 49.7    2.235    3.219   177.8     0.7    20.2
2009 02 03    08 39.51   +16 04.1    2.242    3.223   173.5     2.0    20.3
2009 02 08    08 34.79   +16 18.0    2.258    3.228   167.5     3.8    20.5
2009 02 13    08 30.31   +16 31.1    2.281    3.232   161.4     5.6    20.6
2009 02 18    08 26.16   +16 43.2    2.311    3.235   155.4     7.3    20.7
2009 02 23    08 22.42   +16 54.0    2.348    3.239   149.4     8.9    20.8
2009 02 28    08 19.18   +17 03.4    2.391    3.242   143.6    10.4    20.9

Back to Observable Critical-List Minor Planets

MPC

Valid HTML 4.01!